Ravenna, OH

10:01 PM EST on December 13, 2017 (GMT -0500)
Ravenna

Weather History for KPOV - March, 2014

Change the Weather History Date:

Tuesday, March 4, 2014

  Actual Average (KCAK) Record (KCAK)
Temperature  
Mean Temperature 11 °F -  
Max Temperature 26 °F 46 °F 74 °F (1983)
Min Temperature -4 °F 28 °F -1 °F (1943)
Degree Days  
Heating Degree Days 54    
Moisture  
Dew Point -1 °F    
Average Humidity 54    
Maximum Humidity 82    
Minimum Humidity 29    
Precipitation  
Precipitation 0.01 in - - ()
Sea Level Pressure  
Sea Level Pressure 30.24 in    
Wind  
Wind Speed 1 mph (SSE)    
Max Wind Speed 6 mph    
Max Gust Speed -    
Visibility 10 miles    
Events      
Averages and records for this station are not official NWS values.
T = Trace of Precipitation, MM = Missing Value Source: NWS Daily Summary

Daily Weather History Graph

Daily Weather History Graph

Search for Another Location

Airport or City:

Trip Planner

Search our weather history database for the weather conditions in past years. The results will help you decide how hot, cold, wet, or windy it might be!

Date:

Astronomy

Mar. 04, 2014 Rise Set
Actual Time 6:54 AM EST 6:19 PM EST
Civil Twilight 6:27 AM EST 6:46 PM EST
Nautical Twilight 5:55 AM EST 7:18 PM EST
Astronomical Twilight 5:23 AM EST 7:50 PM EST
Moon 8:37 AM EST (3/4) 10:27 PM EST (3/4)
Length of Visible Light 12h 19m
Length of Day
11h 24m
Waxing Crescent, 14% of the Moon is Illuminated
Mar 4
Waxing Crescent
Mar 8
First Quarter
Mar 16
Full
Mar 23
Last Quarter
Mar 30
New

Hourly Weather History & Observations

Time (EST) Temp. Windchill Dew Point Humidity Pressure Visibility Wind Dir Wind Speed Gust Speed Precip Events Conditions
12:13 AM -1.5 °F - -6.0 °F 81% 30.34 in 10.0 mi Calm Calm - N/A   Clear
12:33 AM -3.3 °F - -7.8 °F 81% 30.34 in 10.0 mi Calm Calm - N/A   Clear
12:53 AM -2.2 °F - -6.9 °F 80% 30.35 in 10.0 mi Calm Calm - N/A   Clear
1:13 AM -3.1 °F - -7.6 °F 81% 30.35 in 10.0 mi Calm Calm - N/A   Clear
1:33 AM -2.6 °F - -7.2 °F 80% 30.34 in 10.0 mi Calm Calm - N/A   Clear
1:53 AM -4.0 °F - -8.5 °F 81% 30.34 in 10.0 mi Calm Calm - N/A   Clear
2:13 AM -4.0 °F - -8.5 °F 81% 30.34 in 10.0 mi Calm Calm - N/A   Clear
2:33 AM -3.1 °F - -7.6 °F 81% 30.34 in 10.0 mi Calm Calm - N/A   Clear
2:53 AM -2.0 °F - -6.3 °F 82% 30.32 in 10.0 mi Calm Calm - N/A   Clear
3:13 AM -1.8 °F - -6.7 °F 80% 30.33 in 10.0 mi Calm Calm - N/A   Clear
3:33 AM -1.8 °F - -6.5 °F 80% 30.32 in 10.0 mi Calm Calm - N/A   Clear
3:53 AM -2.2 °F - -6.9 °F 80% 30.33 in 10.0 mi Calm Calm - N/A   Clear
4:13 AM -1.7 °F - -6.3 °F 80% 30.33 in 10.0 mi Calm Calm - N/A   Clear
4:33 AM -0.8 °F - -5.6 °F 80% 30.31 in 10.0 mi Calm Calm - N/A   Clear
4:53 AM 0.1 °F - -4.9 °F 79% 30.31 in 10.0 mi Calm Calm - N/A   Clear
5:13 AM 1.2 °F - -4.2 °F 78% 30.31 in 10.0 mi Calm Calm - N/A   Clear
5:34 AM 1.8 °F - -4.2 °F 76% 30.30 in 10.0 mi Calm Calm - N/A   Scattered Clouds
5:53 AM 1.8 °F - -4.4 °F 76% 30.31 in 10.0 mi Calm Calm - N/A   Scattered Clouds
6:13 AM 2.1 °F - -4.0 °F 76% 30.32 in 10.0 mi Calm Calm - N/A   Mostly Cloudy
6:33 AM 2.3 °F - -4.0 °F 75% 30.32 in 10.0 mi Calm Calm - N/A   Overcast
6:54 AM 2.3 °F -5.2 °F -4.0 °F 75% 30.31 in 10.0 mi SE 3.5 mph - N/A   Mostly Cloudy
7:13 AM 2.5 °F -5.0 °F -4.0 °F 74% 30.31 in 10.0 mi SE 3.5 mph - N/A   Scattered Clouds
7:33 AM 3.0 °F - -3.6 °F 74% 30.31 in 10.0 mi Calm Calm - N/A   Clear
7:54 AM 3.2 °F - -3.3 °F 74% 30.31 in 10.0 mi Calm Calm - N/A   Clear
8:13 AM 5.5 °F -1.5 °F -2.9 °F 68% 30.30 in 10.0 mi SE 3.5 mph - N/A   Clear
8:34 AM 7.0 °F - -3.3 °F 63% 30.30 in 10.0 mi Calm Calm - N/A   Clear
8:53 AM 7.9 °F 1.2 °F -4.7 °F 57% 30.30 in 10.0 mi ESE 3.5 mph - N/A   Clear
9:14 AM 9.5 °F 1.2 °F -4.0 °F 54% 30.30 in 10.0 mi SE 4.6 mph - N/A   Clear
9:33 AM 10.9 °F 2.9 °F -5.1 °F 49% 30.30 in 10.0 mi ESE 4.6 mph - N/A   Scattered Clouds
9:53 AM 13.1 °F 7.1 °F -5.3 °F 44% 30.30 in 10.0 mi SSE 3.5 mph - N/A   Scattered Clouds
10:13 AM 14.0 °F 8.2 °F -6.5 °F 40% 30.30 in 10.0 mi SSE 3.5 mph - N/A   Clear
10:33 AM 15.6 °F - -5.1 °F 40% 30.29 in 10.0 mi Calm Calm - N/A   Clear
10:54 AM 16.2 °F 7.6 °F -4.7 °F 39% 30.27 in 10.0 mi SSE 5.8 mph - N/A   Clear
11:13 AM 17.4 °F 12.1 °F -3.5 °F 40% 30.26 in 10.0 mi SSE 3.5 mph - N/A   Clear
11:33 AM 19.6 °F 13.0 °F -3.3 °F 37% 30.26 in 10.0 mi SE 4.6 mph - 0.01 in   Clear
11:53 AM 19.6 °F 14.5 °F -2.7 °F 37% 30.25 in 10.0 mi SSE 3.5 mph - 0.01 in   Clear
12:14 PM 20.1 °F - -3.5 °F 35% 30.24 in 10.0 mi Calm Calm - N/A   Scattered Clouds
12:33 PM 20.7 °F 15.8 °F -2.4 °F 36% 30.23 in 10.0 mi SSW 3.5 mph - N/A   Mostly Cloudy
12:53 PM 21.0 °F 16.2 °F -1.8 °F 37% 30.22 in 10.0 mi SW 3.5 mph - N/A   Mostly Cloudy
1:13 PM 22.5 °F 17.8 °F -1.3 °F 36% 30.21 in 10.0 mi West 3.5 mph - N/A   Scattered Clouds
1:33 PM 22.5 °F - -1.5 °F 35% 30.20 in 10.0 mi Calm Calm - N/A   Clear
1:54 PM 23.5 °F - -0.2 °F 36% 30.20 in 10.0 mi Calm Calm - N/A   Clear
2:13 PM 24.3 °F 19.9 °F -1.1 °F 33% 30.18 in 10.0 mi WNW 3.5 mph - N/A   Scattered Clouds
2:33 PM 24.3 °F - -1.1 °F 33% 30.18 in 10.0 mi Calm Calm - N/A   Scattered Clouds
2:53 PM 24.8 °F - -2.4 °F 31% 30.17 in 10.0 mi Calm Calm - N/A   Scattered Clouds
3:14 PM 25.7 °F 21.5 °F -1.3 °F 31% 30.16 in 10.0 mi NNW 3.5 mph - N/A   Mostly Cloudy
3:33 PM 26.2 °F - -1.8 °F 30% 30.16 in 10.0 mi Calm Calm - N/A   Mostly Cloudy
3:54 PM 25.7 °F - -2.7 °F 29% 30.16 in 10.0 mi Calm Calm - N/A   Overcast
4:13 PM 26.1 °F - -1.3 °F 31% 30.16 in 10.0 mi Calm Calm - N/A   Overcast
4:33 PM 26.4 °F - -1.3 °F 30% 30.15 in 10.0 mi Calm Calm - N/A   Mostly Cloudy
4:53 PM 25.9 °F - -0.6 °F 32% 30.16 in 10.0 mi Calm Calm - N/A   Scattered Clouds
5:14 PM 25.9 °F - 0.1 °F 33% 30.15 in 10.0 mi Calm Calm - N/A   Overcast
5:33 PM 26.2 °F - 0.7 °F 33% 30.15 in 10.0 mi Calm Calm - N/A   Overcast
5:53 PM 26.1 °F - 3.4 °F 38% 30.15 in 10.0 mi Calm Calm - N/A   Overcast
6:14 PM 26.1 °F - 0.7 °F 34% 30.15 in 10.0 mi Calm Calm - N/A   Overcast
6:33 PM 25.9 °F - 0.9 °F 34% 30.16 in 10.0 mi Calm Calm - N/A   Overcast
6:53 PM 25.7 °F - 2.5 °F 37% 30.16 in 10.0 mi Calm Calm - N/A   Overcast
7:13 PM 25.7 °F - 1.4 °F 35% 30.16 in 10.0 mi Calm Calm - N/A   Overcast
7:33 PM 25.5 °F - 4.5 °F 41% 30.17 in 10.0 mi Calm Calm - N/A   Overcast
7:53 PM 25.5 °F - 3.7 °F 39% 30.17 in 10.0 mi Calm Calm - N/A   Overcast
8:14 PM 25.3 °F - 3.4 °F 39% 30.16 in 10.0 mi Calm Calm - N/A   Overcast
8:33 PM 25.2 °F - 2.8 °F 38% 30.16 in 10.0 mi Calm Calm - N/A   Overcast
8:53 PM 24.8 °F - 6.6 °F 46% 30.15 in 10.0 mi Calm Calm - N/A   Overcast
9:14 PM 24.3 °F - 8.1 °F 50% 30.16 in 10.0 mi Calm Calm - N/A   Overcast
9:33 PM 23.9 °F 19.5 °F 9.0 °F 53% 30.16 in 10.0 mi NNW 3.5 mph - N/A   Overcast
9:53 PM 23.5 °F 19.1 °F 9.3 °F 55% 30.17 in 10.0 mi NW 3.5 mph - N/A   Overcast
10:14 PM 23.5 °F - 9.5 °F 55% 30.18 in 10.0 mi Calm Calm - N/A   Overcast
10:33 PM 23.2 °F - 10.0 °F 57% 30.18 in 10.0 mi Calm Calm - N/A   Overcast
10:53 PM 23.0 °F - 11.5 °F 61% 30.18 in 10.0 mi Calm Calm - N/A   Overcast
11:13 PM 22.5 °F - 9.9 °F 59% 30.18 in 10.0 mi Calm Calm - N/A   Overcast
11:33 PM 22.1 °F - 9.7 °F 59% 30.18 in 10.0 mi Calm Calm - N/A   Overcast
11:54 PM 21.9 °F 17.2 °F 10.4 °F 61% 30.18 in 10.0 mi NW 3.5 mph - N/A   Overcast